This is the latest recevied weather packets stored in our database for station/object DM1RG-6. If no packets are shown the sender has not sent any weather packets the latest 10 day(s).
| Time | Temp. | Humidity | Pressure | Rain* | Wind** | Luminosity | Snow |
|---|---|---|---|---|---|---|---|
| 1777734363 | 27.22° C | 28% | 1016.8 hPa | 0 mm | - | - | - |
| 1777734003 | 26.67° C | 30% | 1017.1 hPa | 0 mm | - | - | - |
| 1777733643 | 27.22° C | 28% | 1017.3 hPa | 0 mm | - | - | - |
| 1777733283 | 26.67° C | 28% | 1017.6 hPa | 0 mm | - | - | - |
| 1777732564 | 27.22° C | 28% | 1017.4 hPa | 0 mm | - | - | - |
| 1777732203 | 26.67° C | 27% | 1017.6 hPa | 0 mm | - | - | - |
| 1777731843 | 26.67° C | 28% | 1017.5 hPa | 0 mm | - | - | - |
| 1777731483 | 26.67° C | 29% | 1018 hPa | 0 mm | - | - | - |
| 1777731123 | 26.11° C | 29% | 1017.7 hPa | 0 mm | - | - | - |
| 1777730764 | 26.67° C | 27% | 1018 hPa | 0 mm | - | - | - |
| 1777730403 | 26.67° C | 28% | 1018.1 hPa | 0 mm | - | - | - |
| 1777730043 | 26.67° C | 27% | 1018.1 hPa | 0 mm | - | - | - |
| 1777729684 | 26.11° C | 29% | 1018.3 hPa | 0 mm | - | - | - |
| 1777728963 | 26.67° C | 29% | 1018.4 hPa | 0 mm | - | - | - |
| 1777728604 | 27.22° C | 30% | 1018.2 hPa | 0 mm | - | - | - |
| 1777728243 | 25.56° C | 32% | 1018.8 hPa | 0 mm | - | - | - |
| 1777727884 | 25.56° C | 31% | 1018.5 hPa | 0 mm | - | - | - |
| 1777727524 | 26.11° C | 31% | 1018.7 hPa | 0 mm | - | - | - |
| 1777727164 | 26.11° C | 30% | 1018.8 hPa | 0 mm | - | - | - |
| 1777726804 | 25.56° C | 30% | 1018.9 hPa | 0 mm | - | - | - |
| 1777725724 | 26.67° C | 31% | 1019.3 hPa | 0 mm | - | - | - |
| 1777725363 | 26.67° C | 31% | 1019.4 hPa | 0 mm | - | - | - |
| 1777725004 | 25.56° C | 33% | 1019.3 hPa | 0 mm | - | - | - |
| 1777724643 | 25.56° C | 34% | 1019.3 hPa | 0 mm | - | - | - |
| 1777724283 | 25.56° C | 31% | 1019.6 hPa | 0 mm | - | - | - |
* Rain latest hour (hover to see other rain measurements)
** Current wind speed in m/s (hover to see current wind gust speed)